COSMOS 374 DEB

Satellite information

Favourite Embed

Satellite Type and Status

DEBRISIN ORBIT

Key statistics

Satellite COSMOS 374 DEB at a glance.

Uptime

19924

Days in orbit

Revolutions

≈ 14.7

Per day

Orbit

LEO

Low Earth Orbit

Inclination

62.9

Latest

Satellite identification and parameters

Extended collection of information and parameters for COSMOS 374 DEB.

Object identification

Identified? True

Debris? True

Object name: COSMOS 374 DEB

International designator: 1970-089R

Object number (NORAD): 4699

Object ID (CCSDS): 4699

Country: COMMONWEALTH OF INDEPENDENT STATES (CIS)

Current information (Y/N): Y

RCS size: SMALL

Orbital parameters

Period: 98.262 minutes

Inclination: 62.9182 deg

SMA: 7053.696 km

Apoapsis: 882.692 km

Periapsis: 468.43 km

RAAN: 293.0529 deg

Eccentricy: 0.0293649

Argument of periapsis: 148.1084 deg

Mean anomaly: 213.8159 deg

Mean motion: 14.6547244 rev/day

Mean motion (dot): 0.00029781 rev/day2

B* drag term: 0.0028796 1/REarth

Two-line elements (TLE)

Creation date: May 11, 2025, 2:40 a.m.

Reference frame: TEME

Reference center: EARTH

Epoch: May 10, 2025, 4:38 p.m. UTC

TLE line 0: 0 COSMOS 374 DEB

TLE line 1: 1 04699U 70089R 25130.69346391 .00029781 00000-0 28796-2 0 9995

TLE line 2: 2 04699 62.9182 293.0529 0293649 148.1084 213.8159 14.65472440652501

Live tracking on map

Real-time ground track for satellite COSMOS 374 DEB.

In-orbit conjunctions

A list of the most updated potential collisions computed for object COSMOS 374 DEB.

Target Orbit TCA Probability of collision Miss distance Type
CZ-2C R/B SSO 2025-04-20 02:31:18 0.0001738365 396.0 (m) ROCKET BODY
OBJECT E SSO 2024-12-23 17:59:57 0.002028406 79.0 (m) UNKNOWN

Associated space launch

The I2P satellites were the first soviet coorbital ASAT system.

COSMOS 374 DEB was lifted into orbit during the mission ‘Tsiklon-2 | I2P 4’, on board a Tsiklon-2 space rocket.

The launch took place on Oct. 23, 1970, 4:42 a.m. from 90/20.

For more information about the launch, click the button.

Launch to space Tsiklon-2 | I2P 4
Tsiklon-2 | I2P 4

Agency: N/A

Status: Launch Successful

Launch date: Oct. 23, 1970, 4:42 a.m. UTC

Rocket: Tsiklon-2

Launch pad: 90/20

Location: Baikonur Cosmodrome, Republic of Kazakhstan

...

Latest news about this satellite

There are no fresh news available about this satellite. Check back as we update our databases every day.


Newsletter sign-up

Weekly statistics, charts and insights to help you stay on top of the space industry.